Location: Oshawa
(43.9000°N, 78.8670°W)
Time: 07:16:44
(UTC-04:00)

Cosmos 1707 Rocket - Visible Passes

Search period start: 22 June 2018 00:00
Search period end: 02 July 2018 00:00
Orbit: 606 x 631 km, 82.5° (Epoch: 22 June)

Date Brightness Start Highest point End Pass type
(mag) Time Alt. Az. Time Alt. Az. Time Alt. Az.
22 Jun 5.0 00:57:01 10° NNE 01:00:46 27° ENE 01:01:47 24° E visible
22 Jun 4.7 02:34:50 10° NNW 02:38:33 27° W 02:38:55 27° W visible
23 Jun 4.1 01:13:49 10° N 01:18:05 48° ENE 01:18:44 44° ESE visible
23 Jun 5.5 02:52:54 10° NW 02:55:30 16° W 02:55:52 15° W visible
24 Jun 3.4 01:30:53 10° N 01:35:18 89° E 01:35:41 74° S visible
25 Jun 5.6 00:11:31 10° NNE 00:14:16 16° ENE 00:15:32 14° E visible
25 Jun 3.9 01:48:12 10° NNW 01:52:25 48° W 01:52:39 48° WSW visible
26 Jun 4.9 00:27:54 10° NNE 00:31:41 27° ENE 00:32:30 26° E visible
26 Jun 4.9 02:05:47 10° NNW 02:09:27 26° W 02:09:38 26° W visible
27 Jun 4.0 00:44:43 10° N 00:49:00 49° ENE 00:49:30 47° ESE visible
27 Jun 5.6 02:23:55 10° NW 02:26:23 15° W 02:26:38 15° W visible
28 Jun 3.3 01:01:49 10° N 01:06:12 88° W 01:06:31 77° S visible
28 Jun 5.5 23:42:23 10° NNE 23:45:11 17° ENE 23:46:24 15° E visible
29 Jun 4.0 01:19:08 10° NNW 01:23:19 46° W 01:23:32 46° WSW visible
29 Jun 4.8 23:58:48 10° NNE 00:02:36 28° ENE 00:03:25 26° E visible
30 Jun 5.0 01:36:45 10° NNW 01:40:20 25° W 01:40:34 25° W visible
01 Jul 3.9 00:15:38 10° N 00:19:54 51° ENE 00:20:28 48° ESE visible
01 Jul 5.7 01:54:56 10° NW 01:57:16 14° W 01:57:36 14° W visible
